Showing default

PSN N5, 65588

Orbit data source: Space-Track

PSN N5, 65588 is a payload satellite owned by SNT (ID) in HEO that was launched on Fri, 12 Sep 2025 UTC via an FALCON 9 launch vehicle from the Air Force Eastern Test Range (AFETR). Payload-class satellites include a variety of spacecraft equipped with specific instruments for various scientific and technological missions. These include communications satellites like Starlink; space stations such as the ISS; scientific satellites like the Hubble; Earth observation satellites from companies like Planet Labs, Umbra, and HawkEye 360; GPS; miniature CubeSats for education and research; and military/defense satellites.

Loading next visibility...
Identifier
65588, 2025-205A
Orbit
HEO
Country
Flag of UnknownUnknown / INDO
Related business
None
Manufacturer
Boeing/ES
Mission
Operational spacecraft
Bus & Motor
BSS-702MP, R-4D?
Mass
7,800 kg wet, ~4,500 kg dry
Launch date (UTC)
2025-09-12 (6 days ago)
Launch vehicle
FALCON 9
Launch site
Air Force Eastern Test Range (AFETR)
Object type
Payload
Rocket body
Debris
Shape & HBR
Unknown
Radar Cross Section
RCS unknown

Expand to show TLE details & history
Last TLE update: 6 days ago

TLE from 6 days ago
0 PSN N5
1 65588U 25205A   25255.10218750  .00000041  00000-0  00000-0 0  9994
2 65588  26.4759 204.2219 5387164 174.0939   9.9928  5.04113332    14
Epoch: 2025-09-12T02:27Z
TLE epoch observation values (Epoch: 2025-09-12T02:27:08.999Z)
Latitude
-13.69986°
Longitude
25.17197°
Altitude
773.778 km
Speed
9.151 km/s
True Right ascension
03h 33m 15s
True Declination
-13° 37' 16"
Sunlit
Object was in full shadow at epoch
Visualization orbit readout
Latitude
Unknown
Longitude
Unknown
Altitude
Unknown
Speed
Unknown
Apparent Right ascension
Unknown
Apparent Declination
Unknown
Sunlit
N/A
Visualization observer readout
Local Sidereal Time
12:36:28
Azimuth
Unknown
Elevation
Unknown
Doppler factor
Unknown
Orbital elements
Apogee altitude
15,735.016 km
Perigee altitude
251.047 km
Semi-major axis
14,371.168 km
Eccentricity
0.53872
Inclination
26.4759°
RAAN
204.2219°
Arg. of periapsis
174.0939°
True anomaly
37.58705°
Mean anomaly
9.9928°
Eccentric anomaly
21.1091°
Mean motion
1.25981 °/min
Orbital period
285.76 mins
BSTAR
0
Loading maneuver chart data...
Computing Atmospheric mass density...
Loading historical data...
Loading historical data...
Loading historical data...
Loading historical data...
Loading historical data...
Loading historical data...
Loading historical data...
Other satellites on launch #205 in the year 2025 (2025-09-12 UTC)

Documentation

Showing up to 5 results
|